Location: Bodewryd
(53.4000°N, 4.4167°W)
Time: 01:42:46
(UTC+00:00)

Daily predictions for brighter satellites

Satellite Brightness Start Highest point End
(mag) Time Altitude Azimuth Time Altitude Azimuth Time Altitude Azimuth
ATLAS 2AS CENTAUR R/B 4.1 00:01:22 10° WNW 00:08:43 39° N 00:15:43 10° ENE
CZ-4C R/B 3.6 00:30:27 37° NNW 00:30:49 37° NNW 00:37:11 10° NE
SJ 16-02 4.5 00:37:47 10° NNE 00:38:11 10° NE 00:38:36 10° NE
Cosmos 2297 Rocket 3.9 00:35:44 10° NNW 00:38:13 27° NNW 00:38:13 27° NNW
USA 234 4.1 00:39:15 10° ENE 00:43:28 42° ENE 00:43:28 42° ENE
Cosmos 2369 Rocket 3.8 00:52:18 30° NNW 00:52:18 30° NNW 00:56:11 10° NNE
Cosmos 2263 Rocket 4.1 00:56:39 10° NNW 01:01:24 26° NE 01:03:49 20° ENE
Lacrosse 5 4.4 01:22:28 14° ENE 01:22:28 14° ENE 01:23:15 10° ENE
Resurs 1-4 Rocket 3.6 01:23:37 10° NNE 01:26:57 31° ENE 01:26:57 31° ENE
SL-16 R/B 3.1 01:35:43 53° N 01:35:43 53° N 01:40:22 10° NNW
CZ-2D R/B 3.5 01:30:08 10° NNE 01:33:36 33° ENE 01:33:36 33° ENE
Cosmos 2227 Rocket 4.3 01:33:59 10° NW 01:35:14 17° NW 01:35:14 17° NW
Cosmos 1943 Rocket 4.4 01:47:04 15° NW 01:48:45 17° NNW 01:52:15 10° NNE
Cosmos 1821 Rocket 4.4 01:46:49 10° N 01:53:02 56° ENE 01:53:03 56° ENE
ATLAS 5 CENTAUR R/B 3.4 01:57:35 32° NNE 01:57:35 32° NNE 02:00:37 10° NE
ATLAS 2AS CENTAUR R/B 3.7 01:53:49 10° NW 02:01:20 49° NNE 02:08:21 10° E
SJ 16-02 3.2 02:13:51 10° NNW 02:16:14 27° N 02:16:14 27° N
ADEOS II 3.0 02:13:29 10° NNE 02:18:19 42° E 02:18:19 42° E
Cosmos 2369 4.1 02:20:39 60° E 02:20:39 60° E 02:25:41 10° NE
CZ-4C R/B 3.9 02:15:37 13° NW 02:20:54 38° NNE 02:27:52 10° E
Nadezhda 3 Rocket 4.1 02:27:57 65° ESE 02:28:19 67° E 02:34:27 10° NNE
USA 234 3.3 02:22:02 10° E 02:28:35 77° NNE 02:30:48 45° WNW
Cosmos 1238 Rocket 4.4 02:24:49 10° N 02:31:21 60° ENE 02:33:17 42° SE
CZ-4B R/B 4.0 02:29:45 10° NNE 02:34:35 57° E 02:34:35 57° E
H-2A R/B 4.5 02:36:49 10° ESE 02:40:18 23° ENE 02:43:50 10° N
Cosmos 1697 Rocket 2.7 02:40:57 77° NNE 02:40:57 77° NNE 02:46:12 10° NNE
ATLAS CENTAUR R/B 4.1 02:25:13 10° W 02:42:04 70° N 02:47:58 10° E
Cosmos 2263 Rocket 2.3 02:40:24 10° NNW 02:45:20 69° NNW 02:45:20 69° NNW
Cosmos 1980 Rocket 2.3 02:47:20 65° SE 02:47:31 65° ESE 02:53:08 10° NE
Cosmos 1844 Rocket 4.3 02:44:46 10° NNW 02:49:53 34° NE 02:55:00 10° ESE
ASTEX 1 4.4 02:45:20 10° NNE 02:50:08 44° E 02:51:25 36° SE
Cosmos 2360 4.1 02:51:11 88° SSE 02:51:15 88° ESE 02:57:02 10° NNE
Cosmos 1656 4.2 02:54:22 46° NW 02:54:22 46° NW 02:59:33 10° NNE
Cosmos 1898 Rocket 3.9 02:49:22 10° NNW 02:54:35 61° ENE 02:59:49 10° SE
Cosmos 972 Rocket 4.0 02:55:40 72° N 02:55:40 72° N 03:00:14 10° NNE
SL-08 R/B 3.6 02:57:48 58° N 02:57:48 58° N 03:01:32 10° NNW
Cosmos 2322 Rocket 4.1 02:54:20 15° SE 02:57:29 24° ESE 03:01:54 10° NE
Lacrosse 5 1.8 03:01:39 81° NE 03:01:39 81° NE 03:06:30 10° ENE
Cosmos 1818 4.5 03:01:05 36° NW 03:01:46 37° NNW 03:06:51 10° NE
IRS-1C 4.4 02:58:48 10° NNE 03:04:08 64° ESE 03:05:14 52° SSE
AQUA 4.4 02:59:28 10° N 03:03:18 49° NNW 03:03:18 49° NNW
Cosmos 921 Rocket 3.8 03:05:07 44° ESE 03:05:07 44° ESE 03:09:04 10° NNE
USA 307 3.5 03:08:53 54° E 03:08:53 54° E 03:12:15 10° ENE
Resurs 1-4 Rocket 2.8 03:03:30 10° N 03:08:01 41° NW 03:08:01 41° NW
Cosmos 1812 4.1 03:08:14 33° ESE 03:08:37 34° E 03:12:09 10° NNE
SL-16 R/B 3.5 03:06:39 22° SSE 03:09:17 33° ESE 03:14:20 10° NE
ERBS 4.4 03:12:22 24° E 03:12:22 24° E 03:14:03 10° ENE
USA 308 3.3 03:12:07 59° E 03:12:07 59° E 03:15:38 10° ENE
Cosmos 1937 Rocket 3.8 03:09:00 10° NNW 03:14:09 63° ENE 03:19:15 10° SE
CZ-2D R/B 2.8 03:10:20 10° N 03:14:55 38° NW 03:14:55 38° NW
Cosmos 1151 Rocket 4.1 03:18:02 35° NNW 03:18:02 35° NNW 03:21:01 10° N
SL-16 R/B 4.1 03:20:49 19° WNW 03:20:49 19° WNW 03:23:22 10° NW
CZ-4C R/B 4.4 03:20:02 24° ESE 03:21:40 39° ENE 03:24:58 10° N
Cosmos 1515 Rocket 3.7 03:22:26 62° NW 03:22:26 62° NW 03:26:22 10° N
Cosmos 1536 4.4 03:18:30 10° N 03:22:19 36° ENE 03:26:06 10° SE
CZ-2D R/B 4.1 03:22:03 10° NNE 03:26:15 55° E 03:27:24 41° SSE
Meteor 1-26 Rocket 4.1 03:28:02 58° WSW 03:28:37 62° WNW 03:34:03 10° N
ARIANE 5 R/B 2.5 03:23:46 10° NNE 03:28:53 78° ESE 03:30:25 46° S
NOSS 3-4 (A) 3.7 03:22:17 10° NW 03:29:08 85° SW 03:36:44 10° SE
NOSS 3-4 (C) 3.7 03:22:22 10° NW 03:29:13 86° SW 03:36:51 10° SE
USA 267 3.9 03:27:39 10° ENE 03:33:54 45° SE 03:36:57 28° SSW
NPP 4.5 03:31:36 10° N 03:36:22 33° WNW 03:36:41 33° WNW
Meteor 1-5 Rocket 3.9 03:33:30 10° NNW 03:38:50 73° W 03:42:00 25° S
ADEOS Rocket 3.9 03:34:08 10° SE 03:40:14 50° ENE 03:45:50 10° N
NOSS 3-3 (A) 4.0 03:38:58 40° SSW 03:41:20 77° SE 03:48:12 10° NE
NOSS 3-3 (C) 4.0 03:39:06 40° SSW 03:41:26 77° SE 03:48:17 10° NE
ATLAS 5 CENTAUR R/B 3.5 03:39:07 19° NW 03:41:28 27° N 03:46:02 10° NE
IRS-1D 4.0 03:36:46 10° N 03:41:51 45° WNW 03:42:35 43° W
Cosmos 1934 Rocket 4.1 03:36:25 10° NNW 03:42:11 47° W 03:43:14 42° WSW
CZ-4B R/B 4.1 03:40:25 10° ESE 03:42:53 20° ENE 03:45:24 10° NNE
IRS-P3 4.1 03:38:02 10° NNE 03:43:21 65° WNW 03:44:47 46° SW
MSX 4.2 03:37:58 10° NNE 03:43:44 62° ESE 03:48:33 15° S
ERS-2 3.5 03:40:38 10° SE 03:44:03 39° ENE 03:47:30 10° N
CBERS-1 4.4 03:40:06 10° N 03:44:57 44° WNW 03:45:35 42° W
Cosmos 1733 Rocket 4.0 03:41:20 10° N 03:45:34 48° ENE 03:49:46 10° SSE
IRIDIUM 106 4.3 03:41:30 10° N 03:46:46 86° E 03:51:58 10° S
Cosmos 44 3.2 03:46:58 54° W 03:47:46 65° NW 03:52:32 10° NE
Cosmos 990 Rocket 4.0 03:43:16 10° NNW 03:48:20 54° WSW 03:53:25 10° S
Cosmos 192 4.4 03:48:20 49° WSW 03:49:17 59° WNW 03:54:11 10° NNE
ATLAS 2AS CENTAUR R/B 2.7 03:45:16 10° NW 03:52:55 78° SW 03:59:55 10° SE
Cosmos 2173 Rocket 4.4 03:47:20 10° N 03:53:41 66° ENE 04:00:01 10° SSE
Cosmos 2278 4.1 03:52:14 38° W 03:53:56 49° NW 03:59:31 10° NNE
GENESIS II 4.1 03:53:41 63° WSW 03:54:16 81° NW 03:58:20 10° NE
Meteor 2-6 Rocket 4.2 03:52:21 28° SSW 03:55:33 81° WNW 04:01:30 10° NNE
Meteor 1-10 Rocket 4.3 03:51:45 21° S 03:55:47 87° ESE 04:01:46 10° NNE
SJ 16-02 3.6 03:52:40 10° NW 03:53:08 12° NW 03:53:08 12° NW
Cosmos 1869 Rocket 3.6 03:52:21 10° NNW 03:56:35 51° W 03:56:48 50° WSW
CZ-2C R/B 3.0 03:53:17 10° NNE 03:57:05 67° ESE 03:58:54 29° S
Landsat 5 3.5 03:53:05 10° SSE 03:57:35 87° WSW 04:02:02 10° NNW
ADEOS II 2.7 03:53:21 10° N 03:58:11 38° WNW 03:59:15 34° W
SL-4 R/B 3.3 03:57:30 30° S 03:58:52 37° SSE 04:03:15 10° E
IDEFIX/ARIANE 42P 2.5 03:55:02 10° NNE 04:00:20 77° WNW 04:03:12 28° SSW
Cosmos 389 Rocket 3.8 04:02:10 27° NW 04:02:10 27° NW 04:04:37 10° N
USA 276 3.6 04:03:18 26° SSE 04:03:18 26° SSE 04:05:13 10° SE
Cosmos 468 Rocket 4.0 03:59:52 27° SSW 04:02:49 83° ESE 04:08:06 10° NNE
BREEZE-M DEB (TANK) 3.7 04:08:00 31° SSW 04:09:02 39° SSE 04:15:31 10° E
CZ-4C R/B 3.1 04:03:44 10° NW 04:10:30 71° NE 04:18:32 10° ESE
CSL-04 DEB 4.5 04:06:36 10° S 04:10:55 69° WSW 04:15:19 10° NNW
Cosmos 2228 Rocket 3.4 04:10:44 38° WSW 04:11:41 44° WNW 04:15:58 10° N
USA 234 3.3 04:05:23 10° SE 04:11:48 58° SW 04:18:08 11° WNW
Cosmos 1782 4.2 04:12:16 24° WNW 04:12:16 24° WNW 04:15:15 10° NNW
COSMOS 2441 4.4 04:07:27 10° NNE 04:12:24 90° E 04:16:26 16° SSW
USA 305 2.9 04:12:36 36° W 04:14:18 81° N 04:18:34 10° E
PKM 4.3 04:14:43 37° WSW 04:15:18 40° SW 04:18:37 10° SE
H-2A R/B 2.1 04:11:30 10° S 04:15:54 62° WSW 04:20:23 10° NNW
Cosmos 1605 Rocket 4.4 04:10:54 10° NNW 04:16:51 42° W 04:21:50 14° SSW
COSMOS 2455 4.0 04:12:51 10° NW 04:18:38 44° NE 04:24:23 10° ESE
USA 306 2.9 04:16:52 33° W 04:18:43 81° N 04:23:00 10° E
Cosmos 2360 Rocket 3.0 04:15:52 10° S 04:21:19 51° ESE 04:26:48 10° NE
Meteor 1-4 Rocket 2.6 04:21:08 40° WSW 04:21:58 51° WNW 04:25:29 10° N
CZ-2C R/B 3.0 04:17:08 10° NNE 04:22:16 64° ESE 04:27:26 10° S
Cosmos 1697 Rocket 4.0 04:22:41 19° WNW 04:25:18 26° NW 04:29:59 10° NNE
Cosmos 372 Rocket 3.8 04:20:08 10° NNW 04:25:18 75° WSW 04:30:24 10° SSE
Cosmos 2016 Rocket 4.2 04:19:23 10° N 04:25:32 74° ENE 04:31:38 10° SSE
ASTEX 1 4.2 04:24:36 10° N 04:29:01 32° WNW 04:30:54 24° WSW
Cosmos 2263 Rocket 3.9 04:25:21 10° NW 04:26:51 15° WNW 04:26:51 15° WNW
Cosmos 1980 Rocket 3.1 04:29:06 22° W 04:31:56 34° NW 04:37:04 10° NNE
Cosmos 2061 Rocket 4.2 04:25:53 10° N 04:32:23 81° E 04:38:49 10° SSE
Cosmos 1666 3.4 04:29:24 10° NNW 04:32:50 32° W 04:33:53 27° WSW
Cosmos 1844 Rocket 2.6 04:28:35 10° NW 04:34:11 65° WSW 04:39:46 10° SSE
Cosmos 1898 Rocket 4.4 04:32:00 10° NW 04:36:20 27° W 04:40:40 10° SSW
Spot 4 Rocket 4.4 04:33:00 10° N 04:37:54 45° WNW 04:41:29 18° SW
Cosmos 2278 Rocket 3.4 04:33:32 10° NNW 04:38:57 43° NE 04:44:20 10° ESE
Cosmos 2322 Rocket 2.2 04:36:12 15° SW 04:40:58 77° WNW 04:46:43 10° NNE
Meteor 1-11 Rocket 4.2 04:37:09 10° NNW 04:42:26 38° W 04:47:36 10° SSW
Cosmos 1844 3.6 04:37:27 10° NW 04:43:00 66° WSW 04:48:29 10° SSE
Cosmos 921 Rocket 4.1 04:41:56 21° W 04:43:32 27° NW 04:47:10 10° N
Cosmos 1812 3.8 04:43:20 23° W 04:44:29 26° WNW 04:47:48 10° N
Lacrosse 5 2.3 04:40:50 17° WNW 04:44:42 57° N 04:49:43 10° ENE
Okean 1 4.2 04:42:55 10° S 04:46:52 52° E 04:50:49 10° NNE
Resurs 1-4 Rocket 4.2 04:46:01 10° NNW 04:47:01 11° NW 04:48:02 10° NW
ERBS 2.5 04:45:17 24° W 04:47:05 61° NNW 04:50:26 10° ENE
USA 307 2.9 04:45:04 19° W 04:48:07 84° N 04:52:23 10° E
Cosmos 1725 Rocket 4.0 04:42:00 10° N 04:48:15 88° E 04:54:26 10° S
COSMO-SKYMED 1 3.7 04:45:38 10° SE 04:49:49 48° ENE 04:54:01 10° N
Cosmos 2298 Rocket 4.0 04:44:48 10° NNW 04:50:07 69° WSW 04:55:22 10° SSE
USA 308 2.9 04:48:18 18° W 04:51:30 84° N 04:55:46 10° E
deb Chang Zheng 4 4.2 04:47:30 10° NNE 04:51:46 57° ESE 04:55:57 10° S
SL-16 R/B 2.4 04:48:34 15° SW 04:53:10 57° NW 04:58:47 10° NNE
Cosmos 1437 Rocket 3.0 04:49:44 10° S 04:53:33 69° E 04:57:25 10° NNE
CZ-4C R/B 4.3 04:53:43 19° WSW 04:54:32 21° W 04:57:15 10° NW
Meteor 1-27 Rocket 3.9 04:48:55 10° SSW 04:54:45 58° WNW 05:00:34 10° N
FALCON 9 DEB 3.4 04:53:27 19° WSW 04:55:41 60° SSE 04:59:06 10° E
Cosmos 1937 Rocket 4.4 04:51:36 10° NW 04:55:42 24° W 04:59:46 10° SSW
Cosmos 2100 Rocket 4.2 04:50:56 10° NNW 04:57:03 49° W 05:03:07 10° SSW
Cosmos 1536 3.8 04:55:10 10° NNW 04:58:37 27° W 05:02:02 10° SSW
Cosmos 1782 Rocket 4.3 04:55:02 10° N 04:59:29 60° ENE 05:03:54 10° SSE
Cosmos 1908 Rocket 3.5 04:56:17 10° NNW 05:00:47 82° W 05:05:15 10° S
Cosmos 1459 Rocket 4.1 04:55:13 10° NNW 05:01:02 48° W 05:06:47 10° SSW
Cosmos 1727 Rocket 4.4 04:55:15 10° SW 05:01:18 45° WNW 05:07:20 10° N
Cosmos 2237 4.2 04:56:48 10° SSW 05:02:32 84° WNW 05:08:17 10° NNE
Cosmos 841 Rocket 3.5 04:59:34 10° SW 05:04:48 69° WNW 05:10:06 10° NNE
Cosmos 1703 Rocket 4.3 05:02:30 10° S 05:06:44 56° E 05:11:02 10° NNE
Okean 1-7 3.9 05:03:13 10° S 05:07:20 52° E 05:11:30 10° NNE
Cosmos 1802 Rocket 4.1 05:01:26 10° NNW 05:07:25 53° W 05:13:29 10° SSW
ARIANE 5 R/B 3.8 05:03:39 10° N 05:07:29 22° NW 05:10:44 12° W
Cosmos 2219 Rocket 3.3 05:03:51 10° S 05:09:14 47° ESE 05:14:41 10° NE
Cosmos 1125 Rocket 3.5 05:04:00 10° NNW 05:09:19 75° WSW 05:14:33 10° SSE
Cosmos 2208 Rocket 4.0 05:04:30 10° SSW 05:09:44 76° WNW 05:14:57 10° NNE
Cosmos 1763 Rocket 4.1 05:05:19 12° WSW 05:09:57 40° NW 05:14:57 10° NNE
Cosmos 1814 Rocket 4.0 05:05:50 10° SSW 05:11:04 75° WNW 05:16:25 10° NNE
Intercosmos 25 2.8 05:08:33 10° SSW 05:11:59 77° WNW 05:15:13 10° N
Cosmos 1707 Rocket 4.4 05:09:46 10° SW 05:13:36 29° WNW 05:17:28 10° N
CZ-4B R/B 1.9 05:11:57 10° SSW 05:14:58 36° W 05:18:04 10° NNW
USA 267 3.3 05:10:44 10° ENE 05:17:19 87° NNW 05:23:53 10° WSW
Cosmos 2150 Rocket 4.3 05:12:21 10° NW 05:17:35 48° WSW 05:22:45 10° S
ERS-2 3.3 05:14:48 10° SSW 05:17:45 22° W 05:20:41 10° NW
Cosmos 1943 Rocket 4.3 05:16:30 10° NNW 05:20:54 23° NNE 05:25:15 10° E
Cosmos 1544 3.4 05:18:32 10° NNW 05:21:57 41° W 05:25:20 10° SSW
Cosmos 2123 Rocket 4.0 05:15:52 10° SSW 05:22:08 77° WNW 05:28:30 10° N
Cosmos 1733 Rocket 4.2 05:19:41 10° NW 05:23:06 23° W 05:26:29 10° SW
ATLAS CENTAUR R/B 2.9 05:14:10 10° WNW 05:23:11 54° SW 05:26:52 10° SSE
Cosmos 1743 3.5 05:20:35 10° NNW 05:23:57 30° W 05:27:18 10° SSW
Cosmos 540 Rocket 3.8 05:20:13 10° SW 05:25:15 50° WNW 05:30:19 10° NNE
ADEOS Rocket 3.5 05:20:01 10° SSW 05:25:57 38° W 05:31:25 10° NNW
ATLAS 5 CENTAUR R/B 3.5 05:22:47 10° NW 05:27:24 34° NNE 05:32:45 10° E
CZ-3B R/B 3.7 05:24:37 10° W 05:28:55 81° N 05:48:40 10° E
Cosmos 44 Rocket 3.4 05:24:18 10° SW 05:29:04 65° NW 05:33:59 10° NE
RESURS DK-1 2.6 05:25:16 10° NNW 05:29:28 77° NE 05:33:38 10° SE
PAYLOAD A 4.5 05:25:55 10° N 05:30:10 35° WNW 05:34:26 10° SW
CZ-2C R/B 4.5 05:28:40 10° NNW 05:31:07 16° WNW 05:33:34 10° W
METEOR-M 4.2 05:26:34 10° NNE 05:31:58 88° ESE 05:37:20 10° SSW
COSMOS 2428 3.5 05:26:34 10° SSW 05:32:10 59° ESE 05:37:49 10° NE
ADEOS 3.6 05:29:26 10° NNE 05:34:37 65° WNW 05:39:47 10° SSW
Meteor 2-11 Rocket 4.4 05:31:29 10° NNW 05:37:37 72° W 05:43:40 10° S
